Simultaneous Nadir Overpasses (SNOs) Predictions

Prediction of SNOs between NOAA-19 and NPP Satellite Orbit:

Table of predicted SNOs for the next 14.0 days since TLE Epoch: 8/26/2022
Index Date (NOAA-19) Time (NOAA-19) Lat,Lon (NOAA-19) SZA (NOAA-19 ) Date (NPP) Time (NPP) Lat,Lon (NPP) SZA (NPP ) Distance(km) Time Diff (sec)
1 09/06/2022 19:47:13 76.10,-136.72 70.65 09/06/2022 19:48:20 76.16,-134.05 70.47 71.46 67
2 09/06/2022 20:38:08 -76.51, 32.09 109.09 09/06/2022 20:39:12 -76.50, 32.04 109.11 1.50 64
3 09/06/2022 21:29:04 76.49,-160.73 70.92 09/06/2022 21:29:57 76.48,-160.57 70.88 4.12 53
4 09/06/2022 22:20:08 -76.50, 6.55 109.07 09/06/2022 22:20:42 -76.50, 6.65 109.08 2.78 34
5 09/06/2022 23:11:03 76.52, 173.91 70.97 09/06/2022 23:11:28 76.53, 173.87 70.97 1.30 25
6 09/07/2022 00:02:07 -76.53, -18.82 109.02 09/07/2022 00:02:13 -76.55, -18.90 109.00 3.16 6
7 09/07/2022 00:53:02 76.55, 148.55 71.01 09/07/2022 00:52:58 76.53, 148.49 71.00 2.91 4
8 09/07/2022 01:44:06 -76.56, -44.18 108.97 09/07/2022 01:43:43 -76.55, -44.29 108.97 2.95 23
9 09/07/2022 02:35:02 76.54, 123.01 71.03 09/07/2022 02:34:28 76.53, 123.10 71.03 2.58 34
10 09/07/2022 03:26:06 -76.55, -69.72 108.95 09/07/2022 03:25:13 -76.56, -69.67 108.94 1.26 53
11 09/07/2022 04:17:01 76.58, 97.65 71.08 09/07/2022 04:15:59 76.58, 97.55 71.11 2.71 62
12 09/07/2022 05:07:59 -76.84, -94.00 108.74 09/07/2022 05:06:49 -76.82, -96.08 108.58 52.73 70



Historial Predications of SNOs between NOAA-19 and NPP
